Погода в Назартепе

Узбекистан     38°45′23″N   65°29′29″E
темп.,
°C
ветер,
м/с
пор.,
м/с
влажн.,
%
обл.,
%
осадки,
мм/ч
давл.,
гПа
погр.,
м
28 сентября, вт
вт2823:00+17ссз35420 0.0 101593
02:00+16ссз33470 0.0 101434
05:00+14с22500 0.0 101414
08:00+18ссв11400 0.0 101585
11:00+25зсз22230 0.0 1014677
14:00+29зсз32170 0.0 10111384
17:00+29ссз54180 0.0 10111367
20:00+21с59240 0.0 1012146
29 сентября, ср
ср2923:00+19с48300 0.0 1012131
02:00+17с33320 0.0 101229
05:00+16ссз23350 0.0 101314
08:00+19ссз11290 0.0 101468
11:00+27сз23210 0.0 1014779
14:00+31ссз54150 0.0 10131694
17:00+29ссз55140 0.0 10131503
20:00+22ссз512250 0.0 1014245
30 сентября, чт
чт3023:00+19ссз49330 0.0 1015164
02:00+18с33360 0.0 101439
05:00+16с34390 0.0 101463
08:00+19ссв35310 0.0 1015131
11:00+27с33180 0.0 1015649
14:00+32с54140 0.0 10131543
17:00+30с44150 0.0 10121273
20:00+23ссз59230 0.0 1013142
1 октября, пт
пт123:00+21с46280 0.0 101273
02:00+19ссв34301 0.0 101249
05:00+17ссв58400 0.0 1013127
08:00+19ссв57360 0.0 1014187
11:00+28с34180 0.0 1013610
14:00+31с87150 0.0 10121248
17:00+30ссв88160 0.0 10111396
20:00+23с713250 0.0 1013318
2 октября, сб
сб223:00+21ссв916310 0.0 1014394
02:00+18с814325 0.0 1016299
05:00+17с61133100 0.0 1017295
08:00+17с7103176 0.0 1019303
11:00+24с67235 0.0 1019894
14:00+27ссз672239 0.0 10181457
17:00+24ссз992518 0.0 10181044
20:00+19ссз8132936 0.0 1020401